Date String (YYYY-MM-DD hh:mm:ss) UTC,Instrument flags,Ambient pressure (hPa),Sample flow (lpm),Bypass flow (lpm),Sample temperature (°C),Ambient temperature (°C),ASC tube jacket temperature (°C),LED temperature (°C),Box temperature (°C),Sample RH (%),Span deviation,Mass concentration (μg/m³),Mass concentration (μg/m³),Mass concentration (μg/m³)
DateTimeUTC,F1_M11,P_M11,Q1_M11,Q2_M11,T1_M11,T2_M11,T3_M11,T4_M11,T5_M11,U1_M11,ZSPAN_M11,X0_M11,X2_M11,X1_M11
2022-03-24 02:00:00,,0825.3,4.99,0.00,23.9,22.7,00.0,33.1,25.5,05.8,0000.0,0002.77,0001.16,0000.73
2022-03-24 02:01:00,,0825.3,5.01,0.00,23.9,22.7,00.0,33.0,25.5,05.9,0000.0,0002.65,0001.16,0000.73
2022-03-24 02:02:00,,0825.3,5.00,0.00,23.8,22.7,00.0,33.0,25.5,05.8,0000.0,0002.03,0001.14,0000.73
2022-03-24 02:03:00,,0825.3,5.00,0.00,23.8,22.6,00.0,33.0,25.5,05.7,0000.0,0002.01,0001.15,0000.73
2022-03-24 02:04:00,,0825.3,5.00,0.00,23.8,22.6,00.0,33.0,25.5,05.8,0000.0,0002.09,0001.18,0000.74
2022-03-24 02:05:00,,0825.3,5.00,0.00,23.8,22.6,00.0,33.0,25.5,05.8,0000.0,0002.17,0001.22,0000.74
2022-03-24 02:06:00,,0825.3,5.00,0.00,23.8,22.7,00.0,32.9,25.4,05.8,0000.0,0002.23,0001.23,0000.74
2022-03-24 02:07:00,,0825.3,5.00,0.00,23.8,22.7,00.0,32.9,25.5,05.8,0000.0,0002.31,0001.27,0000.75
2022-03-24 02:08:00,,0825.3,5.02,0.00,23.8,22.7,00.0,32.9,25.5,05.8,0000.0,0002.33,0001.27,0000.75
2022-03-24 02:09:00,,0825.3,5.00,0.00,23.8,22.7,00.0,32.9,25.4,05.8,0000.0,0002.32,0001.27,0000.76
2022-03-24 02:10:00,,0825.3,5.00,0.00,23.7,22.7,00.0,32.9,25.4,05.8,0000.0,0002.36,0001.29,0000.77
2022-03-24 02:11:00,,0825.4,5.00,0.00,23.7,22.7,00.0,32.8,25.4,05.9,0000.0,0002.36,0001.29,0000.78
2022-03-24 02:12:00,,0825.4,5.00,0.00,23.7,22.7,00.0,32.8,25.3,05.8,0000.0,0002.37,0001.30,0000.78
2022-03-24 02:13:00,,0825.4,5.00,0.00,23.7,22.6,00.0,32.8,25.4,05.7,0000.0,0002.32,0001.27,0000.78
2022-03-24 02:14:00,,0825.4,5.00,0.00,23.7,22.6,00.0,32.8,25.4,05.8,0000.0,0002.19,0001.24,0000.77
2022-03-24 02:15:00,,0825.4,4.99,0.00,23.7,22.6,00.0,32.8,25.4,05.9,0000.0,0002.29,0001.24,0000.77
2022-03-24 02:16:00,,0825.4,4.99,0.00,23.7,22.7,00.0,32.8,25.4,06.0,0000.0,0002.25,0001.21,0000.76
2022-03-24 02:17:00,,0825.3,5.00,0.00,23.7,22.7,00.0,32.8,25.4,06.0,0000.0,0002.20,0001.19,0000.76
2022-03-24 02:18:00,,0825.4,5.00,0.00,23.7,22.8,00.0,32.8,25.4,05.9,0000.0,0002.17,0001.17,0000.76
2022-03-24 02:19:00,,0825.4,5.00,0.00,23.7,22.8,00.0,32.8,25.4,06.0,0000.0,0002.26,0001.19,0000.76
2022-03-24 02:20:00,,0825.4,5.00,0.00,23.7,22.8,00.0,32.8,25.5,06.1,0000.0,0002.41,0001.26,0000.78
2022-03-24 02:21:00,,0825.4,5.00,0.00,23.7,22.8,00.0,32.8,25.5,06.1,0000.0,0002.51,0001.31,0000.80
2022-03-24 02:22:00,,0825.4,5.00,0.00,23.7,22.9,00.0,32.8,25.5,06.1,0000.0,0002.46,0001.30,0000.81
2022-03-24 02:23:00,,0825.4,5.01,0.00,23.7,22.9,00.0,32.8,25.5,06.2,0000.0,0002.52,0001.30,0000.81
2022-03-24 02:24:00,,0825.4,5.00,0.00,23.7,22.9,00.0,32.8,25.5,06.2,0000.0,0002.55,0001.31,0000.82
2022-03-24 02:25:00,,0825.4,4.99,0.00,23.7,22.9,00.0,32.7,25.5,06.3,0000.0,0002.62,0001.34,0000.85
2022-03-24 02:26:00,,0825.4,5.01,0.00,23.7,22.9,00.0,32.7,25.5,06.2,0000.0,0002.50,0001.33,0000.86
2022-03-24 02:27:00,,0825.4,4.99,0.00,23.7,22.8,00.0,32.7,25.5,06.2,0000.0,0003.46,0001.38,0000.89
2022-03-24 02:28:00,,0825.4,5.01,0.00,23.7,22.8,00.0,32.7,25.5,06.2,0000.0,0003.47,0001.40,0000.92
2022-03-24 02:29:00,,0825.4,5.00,0.00,23.7,22.8,00.0,32.7,25.5,06.2,0000.0,0003.52,0001.45,0000.95
2022-03-24 02:30:00,,0825.5,5.00,0.00,23.7,22.8,00.0,32.7,25.5,06.2,0000.0,0003.48,0001.44,0000.96
2022-03-24 02:31:00,,0825.5,5.00,0.00,23.7,22.8,00.0,32.7,25.5,06.3,0000.0,0003.40,0001.41,0000.96
2022-03-24 02:32:00,,0825.5,5.01,0.00,23.7,22.7,00.0,32.7,25.5,06.3,0000.0,0003.36,0001.39,0000.97
2022-03-24 02:33:00,,0825.5,5.01,0.00,23.7,22.7,00.0,32.7,25.4,06.4,0000.0,0003.38,0001.39,0000.99
2022-03-24 02:34:00,,0825.5,5.00,0.00,23.7,22.7,00.0,32.7,25.4,06.4,0000.0,0004.08,0001.42,0001.01
2022-03-24 02:35:00,,0825.5,5.00,0.00,23.7,22.7,00.0,32.7,25.4,06.4,0000.0,0004.47,0001.42,0001.03
2022-03-24 02:36:00,,0825.5,5.00,0.00,23.7,22.7,00.0,32.7,25.4,06.5,0000.0,0004.53,0001.45,0001.06
2022-03-24 02:37:00,,0825.5,5.00,0.00,23.7,22.7,00.0,32.7,25.4,06.5,0000.0,0004.72,0001.53,0001.08
2022-03-24 02:38:00,,0825.5,4.99,0.00,23.6,22.6,00.0,32.7,25.4,06.5,0000.0,0004.15,0001.56,0001.10
2022-03-24 02:39:00,,0825.5,5.00,0.00,23.6,22.6,00.0,32.7,25.4,06.5,0000.0,0003.91,0001.58,0001.10
2022-03-24 02:40:00,,0825.5,5.00,0.00,23.6,22.6,00.0,32.7,25.4,06.5,0000.0,0004.06,0001.60,0001.11
2022-03-24 02:41:00,,0825.5,5.02,0.00,23.6,22.5,00.0,32.7,25.3,06.5,0000.0,0004.89,0001.66,0001.13
2022-03-24 02:42:00,,0825.5,4.99,0.00,23.6,22.5,00.0,32.7,25.3,06.6,0000.0,0005.50,0001.70,0001.15
2022-03-24 02:43:00,,0825.5,5.00,0.00,23.6,22.5,00.0,32.6,25.3,06.6,0000.0,0005.65,0001.77,0001.16
2022-03-24 02:44:00,,0825.6,5.00,0.00,23.6,22.5,00.0,32.6,25.2,06.6,0000.0,0005.72,0001.81,0001.17
2022-03-24 02:45:00,,0825.6,5.01,0.00,23.6,22.5,00.0,32.6,25.2,06.7,0000.0,0005.63,0001.90,0001.20
2022-03-24 02:46:00,,0825.6,4.98,0.00,23.5,22.4,00.0,32.6,25.2,06.7,0000.0,0005.48,0001.95,0001.22
2022-03-24 02:47:00,,0825.6,5.00,0.00,23.5,22.4,00.0,32.6,25.2,06.7,0000.0,0006.03,0002.01,0001.23
2022-03-24 02:48:00,,0825.6,5.01,0.00,23.5,22.4,00.0,32.6,25.2,06.7,0000.0,0006.10,0002.04,0001.25
2022-03-24 02:49:00,,0825.6,5.00,0.00,23.5,22.4,00.0,32.6,25.2,06.7,0000.0,0006.37,0002.08,0001.27
2022-03-24 02:50:00,,0825.6,4.99,0.00,23.5,22.4,00.0,32.6,25.2,06.7,0000.0,0006.60,0002.13,0001.29
2022-03-24 02:51:00,,0825.7,5.00,0.00,23.5,22.4,00.0,32.6,25.2,06.7,0000.0,0006.50,0002.12,0001.31
2022-03-24 02:52:00,,0825.7,5.00,0.00,23.5,22.3,00.0,32.5,25.2,06.7,0000.0,0005.98,0002.11,0001.32
2022-03-24 02:53:00,,0825.7,5.00,0.00,23.5,22.3,00.0,32.5,25.2,06.7,0000.0,0004.99,0002.09,0001.34
2022-03-24 02:54:00,,0825.7,5.01,0.00,23.5,22.3,00.0,32.5,25.2,06.7,0000.0,0005.00,0002.08,0001.35
2022-03-24 02:55:00,,0825.7,5.00,0.00,23.4,22.3,00.0,32.5,25.2,06.7,0000.0,0004.93,0002.05,0001.34
2022-03-24 02:56:00,,0825.7,5.00,0.00,23.4,22.3,00.0,32.5,25.1,06.7,0000.0,0004.69,0001.98,0001.33
2022-03-24 02:57:00,,0825.7,5.00,0.00,23.4,22.3,00.0,32.5,25.1,06.7,0000.0,0004.16,0001.94,0001.32
2022-03-24 02:58:00,,0825.7,5.00,0.00,23.4,22.3,00.0,32.5,25.1,06.7,0000.0,0003.74,0001.89,0001.31
2022-03-24 02:59:00,,0825.7,5.00,0.00,23.4,22.3,00.0,32.5,25.1,06.7,0000.0,0004.20,0001.87,0001.30
